THEMIS E

Last updated on Wed Sep 17 2025 00:02:40 GMT+0000 (Coordinated Universal Time)

1 30798U 07004E 25259.09391823 .00000026 00000+0 00000+0 0 9992 2 30798 0.8756 121.5105 8404408 160.5489 74.0450 0.87837486 63506
UTC large
Height (km)
Speed (km/s)
/
Latitude / Longitude
Inclination (degrees)
Orbital Period (minutes)
Azimuth
Elevation
Range (km)
Doppler Factor

Next 0 passes for location: London (51.5072 / 0.1276)

Sorry there are no passes over London.